Content
SEND FEEDBACK

Daily
Averages
Monthly
Summary
Mexico

PUEBLA - JARDINES DE SAN MANUEL, PUEBLA


Home > North America > Mexico > Puebla
Elevation: 6962 feet     Latitude: 19 00N     Longitude: 098 11W

WEATHER
 
SELECT A DAY
Number of Records: 123,312;   Date Range: 1/1/95 - 9/30/14
 
SHARE

PRINT THIS DATA

[ ← Previous Day ]
WEATHER ALMANAC - FEBRUARY 19, 2013
[ Next Day → ]
[ °C ]   °F
Weather ElementAverageHighLow
Temperature60.9 °F81 °F (2:50 pm) (4:45 pm)
Dewpoint26.6 °F35.6 °F (7:41 am) (7:00 pm)
Humidity27 %76 % (6:45 am)9 % (2:50 pm)
Barometer28.93 in30.40 in (9:42 am) (7:00 pm)
Wind Speed6.5 mph18.4 mph (6:41 pm)
Wind Gust15 mph (12:40 pm)
Weather ElementAverage
Visibility8.3 mi
Wind DirectionSSE (151.3 °)

Weather ElementTotal
Precipitation---
Heating Degree Days24.5 (Base 65)
Averaged from 24 records on February 19, 2013
WEATHER CONDITIONS BREAKOUT
WIND DIRECTION BREAKOUT
WEATHER BY HOUR - FEBRUARY 19, 2013
[ °C ]   °F
Local TimeTemperatureDewpointHumidityBarometerVisibilityWind DirectionWind SpeedGust SpeedPrecipitationEventsConditions
5:58 AM48.0 °F29.0 °F35 %29.88 in3.0 miENE (60°)2.2 mphPartly Cloudy
6:45 AM41.0 °F33.8 °F76 %30.34 in8.0 miNorth (350°)6.9 mphClear
7:41 AM46.4 °F35.6 °F66 %30.36 in10.0 miNNW (340°)5.8 mphClear
8:48 AM55.4 °F35.6 °F47 %30.38 in10.0 miNorth (360°)6.9 mphClear
8:50 AM59.0 °F34.0 °F27 %30.02 in3.0 miNNE (30°)2.2 mphHaze
9:42 AM62.6 °F32.0 °F32 %30.40 in10.0 miEast (90°)3.5 mphClear
10:41 AM69.8 °F28.4 °F21 %30.39 in10.0 miSSE (160°)6.9 mphClear
11:41 AM73.4 °F28.4 °F19 %30.36 in10.0 miCalmClear
11:50 AM74.0 °F34.0 °F13 %29.97 in3.0 miSW (230°)4.5 mphHaze
12:40 PM39.2 °F26.6 °F61 %30.33 in10.0 miSE (130°)3.5 mph15.0 mphClear
1:43 PM75.2 °F23.0 °F14 %30.29 in10.0 miWNW (290°)3.5 mphClear
2:43 PM77.0 °F23.0 °F13 %30.26 in10.0 miSE (140°)9.2 mphClear
2:50 PM81.0 °F33.0 °F9 %29.77 in9.0 miESE (120°)13.4 mphHaze
3:44 PM77.0 °F21.2 °F12 %30.24 in10.0 miSSE (150°)4.6 mphScattered Clouds
4:45 PM0.0 °F0.0 °FNorth
4:53 PM75.2 °F30.2 °F19 %30.23 in10.0 miSouth (180°)12.7 mphScattered Clouds
4:55 PM77.0 °F30.2 °F18 %30.23 in10.0 miSouth (180°)12.7 mphScattered Clouds
6:41 PM68.0 °F24.8 °F20 %30.25 in8.0 miSE (140°)18.4 mphScattered Clouds
7:48 PM62.6 °F23.0 °F22 %30.28 in10.0 miESE (120°)13.8 mphScattered Clouds
8:48 PM60.8 °F23.0 °F23 %30.32 in10.0 miSSW (210°)8.1 mphClear
8:58 PM65.0 °F24.0 °F11 %29.63 in3.0 miENE (60°)2.2 mph
9:44 PM59.0 °F21.2 °F23 %30.32 in10.0 miCalmClear
10:46 PM57.2 °F19.4 °F23 %30.33 in10.0 miSW (230°)5.8 mphClear
11:59 PM58.0 °F25.0 °F16 %29.74 in3.0 miENE (60°)2.2 mph
Hourly data recorded from MMPB, located miles away from Puebla - Jardines de San Manuel, Puebla







STORIES FROM OUR PARTNERS